TimeMST,TemperatureF,Dew PointF,Humidity,Sea Level PressureIn,VisibilityMPH,Wind Direction,Wind SpeedMPH,Gust SpeedMPH,PrecipitationIn,Events,Conditions,WindDirDegrees,DateUTC
12:53 AM,48.0,25.0,41,29.71,10.0,SW,32.2,41.4,N/A,,Clear,220,2011-11-24 07:53:00
1:53 AM,46.9,24.1,41,29.70,10.0,SW,32.2,43.7,N/A,,Clear,220,2011-11-24 08:53:00
2:53 AM,46.9,24.1,41,29.67,10.0,SSW,31.1,43.7,N/A,,Clear,200,2011-11-24 09:53:00
3:53 AM,46.4,21.2,37,29.71,10.0,SSW,27.6,44.9,N/A,,Clear,210,2011-11-24 10:53:00
4:53 AM,46.4,21.2,37,29.74,10.0,SW,25.3,39.1,N/A,,Clear,220,2011-11-24 11:53:00
5:53 AM,46.0,21.9,39,29.71,10.0,SW,25.3,34.5,N/A,,Clear,220,2011-11-24 12:53:00
6:53 AM,46.0,23.0,40,29.71,10.0,SW,26.5,38.0,N/A,,Clear,220,2011-11-24 13:53:00
7:53 AM,45.0,23.0,42,29.73,10.0,SW,21.9,32.2,N/A,,Clear,220,2011-11-24 14:53:00
8:53 AM,46.9,23.0,39,29.73,10.0,SW,20.7,34.5,N/A,,Clear,230,2011-11-24 15:53:00
9:53 AM,48.9,24.1,38,29.73,10.0,SW,25.3,33.4,N/A,,Clear,220,2011-11-24 16:53:00
10:53 AM,51.1,24.1,35,29.71,10.0,SW,18.4,32.2,N/A,,Clear,220,2011-11-24 17:53:00
11:53 AM,53.1,24.1,32,29.68,10.0,WSW,17.3,25.3,N/A,,Clear,240,2011-11-24 18:53:00
12:53 PM,54.0,24.1,31,29.67,10.0,WSW,19.6,25.3,N/A,,Clear,240,2011-11-24 19:53:00
1:53 PM,57.9,24.1,27,29.66,10.0,SW,17.3,25.3,N/A,,Clear,230,2011-11-24 20:53:00
2:53 PM,57.0,25.0,29,29.66,10.0,SW,11.5,20.7,N/A,,Clear,230,2011-11-24 21:53:00
3:53 PM,53.1,26.1,35,29.67,10.0,SSW,15.0,-,N/A,,Clear,200,2011-11-24 22:53:00
4:53 PM,50.0,26.1,39,29.67,10.0,SSW,19.6,25.3,N/A,,Clear,210,2011-11-24 23:53:00
5:53 PM,50.0,26.1,39,29.67,10.0,SSW,17.3,-,N/A,,Clear,200,2011-11-25 00:53:00
6:53 PM,50.0,27.0,41,29.65,10.0,SSW,24.2,33.4,N/A,,Clear,210,2011-11-25 01:53:00
7:53 PM,50.0,26.1,39,29.63,10.0,SSW,20.7,33.4,N/A,,Clear,210,2011-11-25 02:53:00
8:53 PM,48.0,26.1,42,29.62,10.0,SSW,23.0,32.2,N/A,,Clear,210,2011-11-25 03:53:00
9:53 PM,46.9,25.0,42,29.59,10.0,SSW,27.6,36.8,N/A,,Clear,210,2011-11-25 04:53:00
10:53 PM,46.9,24.1,41,29.60,10.0,SW,24.2,32.2,N/A,,Clear,220,2011-11-25 05:53:00
11:53 PM,44.1,25.0,47,29.61,10.0,WSW,18.4,28.8,N/A,,Clear,240,2011-11-25 06:53:00